bpm-power.com alexa rank chart, bpm-power.com alexa rank daily changes

bpm-power.com alexa rank chart, bpm-power.com alexa rank daily changes

bpm-power.com
Actual rank:
59 812

RANK HISTORY

Date Rank Diff
2017/08/17 59 812 +1 527
2017/08/16 58 285 +1 127
2017/08/15 57 158 +1 580
2017/08/14 55 578 +1 058
2017/08/13 54 520 +1 008
2017/08/12 53 512 -598
2017/08/11 54 110 -406
2017/08/10 54 516 -1 461
2017/08/09 55 977 +630
2017/08/08 55 347 +328
2017/08/07 55 019 +75
2017/08/06 54 944 -1 455
2017/08/05 56 399 -2 095
2017/08/04 58 494 -625
2017/08/03 59 119 -1 176
2017/08/02 60 295 -1 188
2017/08/01 61 483 +1 063
2017/07/31 60 420 +220
2017/07/30 60 200 +1 237
2017/07/29 58 963 +44
2017/07/28 58 919 -1 049
2017/07/27 59 968 -292
2017/07/26 60 260 -729
2017/07/25 60 989 -281
2017/07/24 61 270 +148
2017/07/23 61 122 +153
2017/07/22 60 969 +793
2017/07/21 60 176 -1 246
2017/07/20 61 422 -733
2017/07/19 62 155 -773
2017/07/18 62 928 -276
2017/07/17 63 204 -707
2017/07/16 63 911 -430
2017/07/15 64 341 +586
2017/07/14 63 755 -1 335
2017/07/13 65 090 -1 518
2017/07/12 66 608 -788
2017/07/11 67 396 +1 360
2017/07/10 66 036 +195
2017/07/09 65 841 -1 275
2017/07/08 67 116 +64
2017/07/07 67 052 -624
2017/07/06 67 676 +436
2017/07/05 67 240 +628
2017/07/04 66 612 +757
2017/07/03 65 855 -488
2017/07/02 66 343 +114
2017/07/01 66 229 -1 420
2017/06/30 67 649 -279
2017/06/29 67 928 -913
2017/06/28 68 841 +86
2017/06/27 68 755 -778
2017/06/26 69 533 -691
2017/06/25 70 224 -435
2017/06/24 70 659 -162
2017/06/23 70 821 -127
2017/06/22 70 948 -2 132
2017/06/21 73 080 +129
2017/06/20 72 951 +686
2017/06/19 72 265 -768
2017/06/18 73 033

WIDGET FOR YOUR SITE

DOMAINS WITH THE NEAREST RANK

Domain Rank
desmaxgo.com 59 807
augur.io 59 808
pytamy.pl 59 809
maynoothuniversity.ie 59 810
bsu.edu.ru 59 811
bpm-power.com 59 812
xwh.cn 59 813
youbiyao.net 59 814
timeout.jp 59 815
yebadu.com 59 816
memekbasah.co 59 817

DOMAINS WITH THE NEAREST RANK BY TLD .com

Domain Rank
paksociety.com 59 799
merrillcorp.com 59 802
k2sporn.com 59 803
gossip-lankanews.com 59 806
desmaxgo.com 59 807
bpm-power.com 59 812
yebadu.com 59 816
jenesaispop.com 59 818
hliang.com 59 819
materialise.com 59 820
dnsleaktest.com 59 826